Weather History for PAOM - July, 2013

Change the Weather History Date:

Wednesday, July 24, 2013

  Actual Average Record
Temperature  
Mean Temperature 53 °F 52 °F  
Max Temperature 59 °F 58 °F 76 °F (2006)
Min Temperature 47 °F 46 °F 30 °F (1914)
Degree Days  
Heating Degree Days 12 13  
Month to date heating degree days 344 309  
Since 1 June heating degree days 820 825  
Since 1 July heating degree days 344 309  
Cooling Degree Days 0    
Month to date cooling degree days 0  
Year to date cooling degree days 7  
Since 1 June cooling degree days 7  
Growing Degree Days 2 (Base 50)    
Moisture  
Dew Point 48 °F    
Average Humidity 0    
Maximum Humidity 0    
Minimum Humidity 0    
Precipitation  
Precipitation 0.00 in 0.08 in 1.64 in (1942)
Month to date precipitation 2.06 1.48  
Year to date precipitation 8.84 6.60  
Snow  
Snow 0.00 in 0.00 in - ()
Month to date snowfall 0.0 0.0  
Since 1 June snowfall 0.1 0.3  
Since 1 July snowfall 0.0 0.0  
Snow Depth 0.00 in    
Sea Level Pressure  
Sea Level Pressure 30.17 in    
Wind  
Wind Speed 5 mph (SW)    
Max Wind Speed 12 mph    
Max Gust Speed 13 mph    
Visibility 7 miles    
Events Fog    
T = Trace of Precipitation, MM = Missing Value Source: NWS Daily Summary

Daily Weather History Graph

Daily Weather History Graph

Search for Another Location

Airport or City:

Trip Planner

Search our weather history database for the weather conditions in past years. The results will help you decide how hot, cold, wet, or windy it might be!

Date:

Astronomy

Jul. 24, 2013 Rise Set
Actual Time 5:39 AM AKDT 12:34 AM AKDT
Civil Twilight 3:40 AM AKDT 2:35 AM AKDT
Nautical Twilight Sun does not rise Sun does not rise
Astronomical Twilight Sun does not rise Sun does not rise
Moon 11:59 PM AKDT 9:48 AM AKDT
Length of Visible Light 22h 55m
Length of Day
18h 54m
Waning Gibbous, 94% of the Moon is Illuminated
Jul 24
Waning Gibbous
Jul 29
Last Quarter
Aug 6
New
Aug 14
First Quarter
Aug 20
Full

Hourly Weather History & Observations

Time (AKDT) Temp. Windchill Dew Point Humidity Pressure Visibility Wind Dir Wind Speed Gust Speed Precip Events Conditions
12:53 AM 46.9 °F - 46.9 °F 100% 30.18 in 0.5 mi WNW 3.5 mph - N/A Fog Fog
12:57 AM 46.4 °F 45.2 °F 46.4 °F 100% 30.17 in 1.0 mi WNW 3.5 mph - N/A   Mist
1:04 AM 48.2 °F - 46.4 °F 93% 30.17 in 3.0 mi Calm Calm - N/A   Overcast
1:39 AM 48.2 °F - 46.4 °F 93% 30.16 in 10.0 mi Calm Calm - N/A   Overcast
1:53 AM 48.0 °F - 46.9 °F 96% 30.17 in 10.0 mi West 4.6 mph - N/A   Overcast
2:27 AM 46.4 °F 45.2 °F 46.4 °F 100% 30.16 in 9.0 mi West 3.5 mph - N/A   Overcast
2:53 AM 46.9 °F - 46.9 °F 100% 30.17 in 6.0 mi Calm Calm - N/A   Mostly Cloudy
3:17 AM 46.4 °F - 46.4 °F 100% 30.15 in 1.8 mi Calm Calm - N/A   Mostly Cloudy
3:30 AM 46.4 °F - 46.4 °F 100% 30.16 in 0.5 mi Calm Calm - N/A Fog Fog
3:43 AM 46.4 °F - 46.4 °F 100% 30.16 in 0.2 mi Calm Calm - N/A Fog Fog
3:53 AM 46.9 °F - 46.9 °F 100% 30.16 in 0.2 mi Calm Calm - N/A Fog Fog
4:41 AM 46.4 °F - 46.4 °F 100% 30.15 in 0.8 mi Calm Calm - N/A   Mist
4:51 AM 46.4 °F - 46.4 °F 100% 30.16 in 1.0 mi Calm Calm - N/A   Mist
4:53 AM 46.9 °F - 46.9 °F 100% 30.16 in 1.0 mi Calm Calm - N/A   Mist
5:05 AM 46.4 °F - 46.4 °F 100% 30.15 in 0.8 mi Calm Calm - N/A   Mist
5:13 AM 46.4 °F - 46.4 °F 100% 30.15 in 1.2 mi Calm Calm - N/A   Overcast
5:30 AM 46.4 °F - 46.4 °F 100% 30.16 in 3.0 mi Calm Calm - N/A   Overcast
5:51 AM 46.4 °F - 46.4 °F 100% 30.16 in 1.8 mi Calm Calm - N/A   Overcast
5:53 AM 46.9 °F - 46.0 °F 97% 30.16 in 1.5 mi Calm Calm - N/A   Overcast
6:01 AM 46.4 °F - 46.4 °F 100% 30.15 in 3.0 mi Calm Calm - N/A   Overcast
6:53 AM 46.9 °F - 46.9 °F 100% 30.15 in 10.0 mi Calm Calm - N/A   Overcast
7:30 AM 46.4 °F 44.3 °F 46.4 °F 100% 30.16 in 10.0 mi West 4.6 mph - N/A   Mostly Cloudy
7:53 AM 46.9 °F - 46.0 °F 97% 30.16 in 10.0 mi WNW 5.8 mph - N/A   Mostly Cloudy
8:20 AM 46.4 °F - 46.4 °F 100% 30.14 in 10.0 mi Calm Calm - N/A   Mostly Cloudy
8:53 AM 48.0 °F - 46.9 °F 96% 30.16 in 10.0 mi Calm Calm - N/A   Overcast
9:12 AM 48.2 °F - 46.4 °F 93% 30.16 in 10.0 mi Calm Calm - N/A   Overcast
9:53 AM 51.1 °F - 48.0 °F 89% 30.16 in 10.0 mi Calm Calm - N/A   Mostly Cloudy
10:53 AM 51.1 °F - 48.0 °F 89% 30.15 in 10.0 mi SSW 6.9 mph - N/A   Overcast
11:53 AM 51.1 °F - 48.0 °F 89% 30.18 in 10.0 mi West 10.4 mph - N/A   Mostly Cloudy
12:53 PM 53.1 °F - 48.9 °F 86% 30.18 in 10.0 mi SW 3.5 mph - N/A   Overcast
1:53 PM 55.0 °F - 50.0 °F 83% 30.18 in 10.0 mi SW 3.5 mph - N/A   Mostly Cloudy
2:53 PM 55.9 °F - 50.0 °F 80% 30.17 in 10.0 mi WSW 4.6 mph - N/A   Mostly Cloudy
3:26 PM 57.2 °F - 50.0 °F 77% 30.17 in 10.0 mi SW 6.9 mph - N/A   Mostly Cloudy
3:53 PM 57.9 °F - 51.1 °F 78% 30.18 in 10.0 mi SW 6.9 mph - N/A   Mostly Cloudy
4:53 PM 57.9 °F - 52.0 °F 81% 30.19 in 10.0 mi SSW 6.9 mph - N/A   Mostly Cloudy
5:53 PM 59.0 °F - 53.1 °F 81% 30.17 in 10.0 mi South 8.1 mph - N/A   Mostly Cloudy
6:53 PM 57.9 °F - 53.1 °F 84% 30.18 in 10.0 mi SSW 6.9 mph - N/A   Mostly Cloudy
7:30 PM 57.2 °F - 51.8 °F 82% 30.18 in 10.0 mi SW 6.9 mph - N/A   Mostly Cloudy
7:53 PM 57.9 °F - 52.0 °F 81% 30.19 in 10.0 mi South 6.9 mph - N/A   Mostly Cloudy
8:53 PM 57.9 °F - 52.0 °F 81% 30.20 in 10.0 mi SSE 5.8 mph - N/A   Mostly Cloudy
9:53 PM 57.0 °F - 52.0 °F 83% 30.20 in 10.0 mi SE 10.4 mph - N/A   Mostly Cloudy
10:53 PM 55.9 °F - 51.1 °F 84% 30.19 in 10.0 mi SE 9.2 mph - N/A   Mostly Cloudy
11:53 PM 55.9 °F - 51.1 °F 84% 30.20 in 10.0 mi ESE 3.5 mph - N/A   Mostly Cloudy